GW5292 Weather Reports


Display with metric or nautical units.
time (UTC)temp
F
wind
direction
speed
MPH
gust
MPH
rain 1hr
in
rain 24hr
in
rain mn
in
humidity
%
barometer
mb
20260905230026 75 98 0.0 2.0 0.00 0.00 0.00 64 1011.3
20260905224527 75 16 0.0 2.0 0.00 0.00 0.00 62 1011.3
20260905223035 76 36 1.0 2.0 0.00 0.00 0.00 59 1011.1
20260905221514 76 331 2.0 4.0 0.00 0.00 0.00 59 1011.2
20260905220024 77 21 1.0 5.0 0.00 0.00 0.00 56 1011.1
20260905214526 78 350 1.0 4.0 0.00 0.00 0.00 56 1011.0
20260905213005 78 346 3.0 8.0 0.00 0.00 0.00 54 1010.9
20260905211512 79 321 2.0 3.0 0.00 0.00 0.00 54 1010.8
20260905210019 78 28 1.0 4.0 0.00 0.00 0.00 54 1010.9
20260905204524 78 130 0.0 3.0 0.00 0.00 0.00 57 1010.9
20260905203029 78 28 0.0 6.0 0.00 0.00 0.00 54 1010.9
20260905201510 78 20 2.0 6.0 0.00 0.00 0.00 53 1011.1
20260905200028 78 15 3.0 4.0 0.00 0.00 0.00 55 1011.2
20260905194524 79 360 3.0 5.0 0.00 0.00 0.00 52 1011.1
20260905193030 78 38 2.0 8.0 0.00 0.00 0.00 51 1011.2
20260905191529 78 20 2.0 7.0 0.00 0.00 0.00 54 1011.2
20260905190014 79 352 2.0 5.0 0.00 0.00 0.00 54 1011.3
20260905184523 77 339 3.0 8.0 0.00 0.00 0.00 57 1011.5
20260905183029 77 296 2.0 5.0 0.00 0.00 0.00 57 1011.5
20260905181530 77 276 1.0 5.0 0.00 0.00 0.00 58 1011.6
20260905180012 78 238 2.0 6.0 0.00 0.00 0.00 59 1011.6
20260905174528 77 360 2.0 6.0 0.00 0.00 0.00 59 1011.8
20260905173026 78 352 1.0 6.0 0.00 0.00 0.00 61 1011.7
20260905171528 78 21 1.0 5.0 0.00 0.00 0.00 59 1011.8
20260905170032 79 18 2.0 3.0 0.00 0.00 0.00 61 1011.8
20260905164516 77 9 1.0 6.0 0.00 0.00 0.00 58 1012.0
20260905163023 78 200 0.0 4.0 0.00 0.00 0.00 63 1012.3
20260905161528 77 352 2.0 5.0 0.00 0.00 0.00 60 1012.4
20260905160046 76 19 1.0 3.0 0.00 0.00 0.00 62 1012.6
20260905154539 76 185 1.0 4.0 0.00 0.00 0.00 61 1012.5
20260905153015 76 186 2.0 6.0 0.00 0.00 0.00 62 1012.7
20260905151527 76 340 1.0 4.0 0.00 0.00 0.00 65 1012.6
20260905150031 76 360 0.0 5.0 0.00 0.00 0.00 66 1012.6
20260905144544 75 322 3.0 6.0 0.00 0.00 0.00 67 1012.4
20260905143037 74 323 3.0 7.0 0.00 0.00 0.00 68 1012.3
20260905141540 74 25 2.0 6.0 0.00 0.00 0.00 68 1012.4
20260905140030 73 22 4.0 8.0 0.00 0.00 0.00 68 1012.6
20260905134530 73 352 2.0 5.0 0.00 0.00 0.00 73 1012.6
20260905133047 73 352 1.0 6.0 0.00 0.00 0.00 73 1012.5
20260905131550 72 306 1.0 4.0 0.00 0.00 0.00 73 1012.5
20260905130027 71 104 0.0 2.0 0.00 0.00 0.00 76 1012.4
20260905124529 71 276 0.0 2.0 0.00 0.00 0.00 78 1012.4
20260905123034 70 240 0.0 2.0 0.00 0.00 0.00 78 1012.3
20260905121514 70 229 0.0 2.0 0.00 0.00 0.00 81 1012.2
20260905120028 69 288 0.0 0.0 0.00 0.00 0.00 83 1012.3
20260905114550 69 308 0.0 0.0 0.00 0.00 0.00 85 1012.2
20260905113034 69 308 0.0 0.0 0.00 0.00 0.00 84 1012.3
20260905111533 69 308 0.0 2.0 0.00 0.00 0.00 84 1012.2
20260905110027 69 304 0.0 0.0 0.00 0.00 0.00 83 1012.0
20260905104529 69 304 0.0 2.0 0.00 0.00 0.00 80 1011.8
20260905103036 69 314 0.0 1.0 0.00 0.00 0.00 85 1011.4
20260905101535 69 285 0.0 2.0 0.00 0.00 0.00 85 1011.3
20260905100019 69 284 0.0 0.0 0.00 0.00 0.00 85 1011.2
20260905094524 69 329 0.0 0.0 0.00 0.00 0.00 84 1011.1
20260905093004 70 329 0.0 0.0 0.00 0.00 0.00 82 1011.1
20260905091510 70 329 0.0 3.0 0.00 0.00 0.00 80 1011.0
20260905090016 70 309 0.0 2.0 0.00 0.00 0.00 81 1011.1
20260905084526 70 349 0.0 2.0 0.00 0.00 0.00 83 1011.1
20260905083026 69 298 0.0 1.0 0.00 0.00 0.00 86 1011.1
20260905081507 70 350 0.0 0.0 0.00 0.00 0.00 86 1011.1
20260905080020 70 350 0.0 0.0 0.00 0.00 0.00 85 1011.1
20260905074525 71 350 0.0 0.0 0.00 0.00 0.00 85 1011.2
20260905073037 71 350 0.0 2.0 0.00 0.00 0.00 83 1011.2
20260905071532 69 38 0.0 0.0 0.00 0.00 0.00 92 1011.3
20260905070013 70 38 0.0 0.0 0.00 0.00 0.00 95 1011.3
20260905064516 70 38 0.0 0.0 0.00 0.00 0.00 95 1011.2
20260905063027 70 38 0.0 0.0 0.00 0.00 0.00 94 1011.4
20260905061528 70 38 0.0 0.0 0.00 0.00 0.00 94 1011.3
20260905060028 70 38 0.0 0.0 0.00 0.00 0.00 94 1011.4
20260905054516 70 38 0.0 0.0 0.00 0.00 0.00 93 1011.5
20260905053033 71 38 0.0 0.0 0.00 0.00 0.00 93 1011.6
20260905051527 71 38 0.0 1.0 0.00 0.00 0.00 94 1011.7
20260905050036 71 152 0.0 0.0 0.00 0.00 0.00 94 1011.7
20260905044544 72 152 0.0 1.0 0.00 0.00 0.00 93 1011.9
20260905043020 72 152 0.0 1.0 0.00 0.00 0.00 93 1012.0
20260905041527 72 152 0.0 1.0 0.00 0.00 0.00 92 1012.0
20260905040030 73 152 0.0 0.0 0.00 0.00 0.00 92 1012.0
20260905034549 73 152 0.0 0.0 0.00 0.15 0.00 91 1011.9
20260905033029 73 152 0.0 0.0 0.00 0.20 0.00 92 1012.2
20260905031527 73 152 0.0 2.0 0.00 0.20 0.00 92 1012.1
20260905030006 74 34 0.0 1.0 0.00 0.20 0.00 91 1012.0
20260905024508 74 34 0.0 0.0 0.00 0.20 0.00 90 1011.9
20260905023037 74 34 0.0 2.0 0.00 0.20 0.00 90 1011.7
20260905021520 74 34 0.0 1.0 0.00 0.20 0.00 1011.5
20260905020029 75 34 0.0 0.0 0.00 0.20 0.00 89 1011.5
20260905014505 75 34 0.0 0.0 0.00 0.20 0.00 89 1011.7
20260905013007 75 34 0.0 1.0 0.00 0.20 0.00 1011.7
20260905011517 75 116 0.0 0.0 0.00 0.20 0.00 88 1011.7
20260905010031 75 116 0.0 0.0 0.00 0.20 0.00 88 1011.6
20260905004530 75 116 0.0 0.0 0.00 0.20 0.00 88 1011.7
20260905003008 75 116 0.0 0.0 0.00 0.20 0.00 88 1011.7
20260905001519 75 116 0.0 0.0 0.00 0.20 0.00 87 1011.5
20260905000021 76 116 0.0 0.0 0.00 0.20 0.00 85 1011.4
20260904234533 77 116 0.0 0.0 0.00 0.20 0.00 84 1011.3
20260904233031 77 116 0.0 0.0 0.00 0.20 0.00 82 1011.2
20260904231511 78 116 0.0 0.0 0.00 0.20 0.00 82 1011.1